Regional Weather Roundup
Issued by NWS Wakefield, VA

Home | Current Version | Previous Version | Graphics & Text | Print | Product List | Glossary On
Versions: 1 2 3 4 5 6 7 8 9 10 11 12 13 14 15 16 17 18 19 20 21 22 23 24 25 26 27 28 29 30 31 32 33 34 35 36 37 38 39 40 41 42 43 44 45 46 47 48 49
000
ASUS41 KAKQ 180210
RWRAKQ

REGIONAL WEATHER ROUNDUP
NATIONAL WEATHER SERVICE WAKEFIELD VA
1000 PM EDT WED SEP 17 2014

Note: "fair" indicates few or no clouds below 12,000 feet with no
significant weather and/or obstructions to visibility. * = Denotes
station may not report precipitation (e.g., rain,snow,etc.),
thunder or fog.

VAZ042-051-052>054-056-180300-
NORTHERN VIRGINIA

CITY           SKY/WX    TMP DP  RH WIND       PRES   REMARKS
WASH NATIONAL  CLEAR     67  49  52 SE3       29.99R
DULLES         PTCLDY    60  52  74 SE5       29.98R
FORT BELVOIR   CLEAR     58  56  92 CALM      29.99R
QUANTICO       CLEAR     68  56  65 SE9       29.99R
FREDERICKSBRG* CLEAR     60  56  84 NE3       29.97S
STAFFORD*      CLEAR     56  56 100 CALM      30.02R
WARRENTON      CLEAR     54  54 100 CALM      29.98R
CULPEPER*      CLEAR     55  54  94 CALM      29.99R
MANASSAS*      NOT AVBL
LEESBURG*      PTCLDY    59  57  94 CALM      29.99R
WINCHESTER     CLOUDY    61  52  72 CALM      29.98R
FRONT ROYAL*   CLOUDY    57  54  88 CALM      29.97S
LURAY*         CLOUDY    61  55  82 CALM      29.99R
$$

VAZ048-049-060>072-079>083-180300-
CENTRAL AND SOUTH CENTRAL VIRGINIA...AND NORTH CENTRAL NORTH CAROLINA

CITY           SKY/WX    TMP DP  RH WIND       PRES   REMARKS
RICHMOND       MOCLDY    65  58  78 CALM      29.98R
CHESTERFIELD*  CLEAR    N/A N/A N/A CALM      29.99R
PETERSBURG*    CLEAR     59  58  95 CALM      29.99R
HANOVER        PTCLDY    60  58  92 CALM      30.00R
TAPPAHANNOCK*  CLEAR     58  55  89 CALM      29.99R
CHARLOTTSVILLE CLEAR     60  55  83 CALM      29.98R
ORANGE*        CLEAR     55  52  88 CALM      30.00R
LOUISA*        CLEAR     57  55  94 CALM      29.97S
FARMVILLE*     PTCLDY    61  61 100 CALM      29.96S
CREWE*         CLEAR     60  58  92 CALM      29.98R
FORT PICKETT*  CLEAR     62  60  93 E3        29.98S
LUNENBURG*     PTCLDY    62  61  96 CALM      29.98S
SOUTH HILL*    PTCLDY    64  64 100 CALM      30.03R
LAWRENCEVILLE* PTCLDY    62  62  97 CALM      29.97S
ROANOKE RAPIDS PTCLDY    61  61 100 CALM      29.97R
RALEIGH        MOCLDY    69  63  81 E5        29.96S
$$

VAZ088>098-180300-
SOUTHEAST VIRGINIA

CITY           SKY/WX    TMP DP  RH WIND       PRES   REMARKS
NORFOLK        CLEAR     69  58  67 E3        29.97R
VIRGINIA BEACH PTCLDY    68  57  68 E7        29.96R
NORFOLK NAVAL  PTCLDY    71  58  63 E9        29.98S
WEST POINT*    CLEAR     63  58  84 CALM      29.99R
NEWPORT NEWS   CLEAR     64  60  87 CALM      29.98R
LANGLEY AFB    CLEAR     67  59  75 E8        29.97R
FORT EUSTIS    CLEAR     65  65 100 CALM      29.96R
WILLIAMSBURG*  CLEAR     64  63  94 CALM      29.99R
HR EXEC AP*    CLEAR     57  54  88 CALM      29.99S
FRANKLIN*      CLEAR     61  59  94 CALM      29.98R
WAKEFIELD      PTCLDY    62  59  90 CALM      29.98R
$$

VAZ020-022-025-037-045-180300-
WEST CENTRAL AND SOUTHWEST VIRGINIA

CITY           SKY/WX    TMP DP  RH WIND       PRES   REMARKS
STAUNTON*      CLEAR     58  52  79 CALM      30.02R
HOT SPRINGS VA PTCLDY    53  37  56 S3        30.07F
LYNCHBURG      CLEAR     57  56  96 CALM      30.00S
DANVILLE       PTCLDY    63  60  90 CALM      29.98R
SOUTH BOSTON*  NOT AVBL
MARTINSVILLE   CLEAR     59  59 100 CALM      30.02R FOG
ROANOKE        CLEAR     63  56  78 CALM      30.01S
BLACKSBURG     MOCLDY    57  57 100 CALM      30.04S
DUBLIN*        CLOUDY    61  60  95 CALM      30.03S
MARION*        PTCLDY    61  58  89 CALM      30.06R
HILLSVILLE*    PTCLDY    58  56  96 CALM      30.04R
RICHLANDS*     CLOUDY    62  59  89 CALM      30.04R
WISE*          CLEAR     55  55 100 CALM      30.05R
ABINGDON*      CLEAR     59  57  91 CALM      30.02R
$$

MDZ021>025-VAZ099-100-180300-
SOUTHERN MARYLAND AND THE DELMARVA PENINSULA

CITY           SKY/WX    TMP DP  RH WIND       PRES   REMARKS
PATUXENT RIVER PTCLDY    56  52  86 W5        29.97S
BAY BRIDGE APT   N/A     63  52  67 CALM      29.98S
LEONARDTOWN    CLEAR     55  50  82 CALM      29.99S
DOVER          CLEAR     61  52  71 S5        29.96F
GEORGETOWN     CLEAR     57  51  80 MISG      30.00S
EASTON         NOT AVBL
CAMBRIDGE      CLEAR     61  54  77 CALM      29.98S
SALISBURY      CLEAR     60  53  77 CALM      29.98F
OCEAN CITY     CLEAR     54  52  93 CALM      29.98F
WALLOPS ISLAND CLEAR     65  53  65 E5        29.99S
ACCOMACK*      CLEAR     57  54  88 E3        29.98R
$$

NCZ012>017-030>032-180300-
EASTERN NORTH CAROLINA

CITY           SKY/WX    TMP DP  RH WIND       PRES   REMARKS
ELIZABETH CITY CLEAR     67  60  78 NE8       29.96S
AHOSKIE*       CLEAR     62  59  91 CALM      29.98R
EDENTON*       CLOUDY    67  62  84 CALM      29.96R
CURRITUCK*     CLEAR     70  57  64 NE6       29.97S
KILL DEVIL HLS CLEAR     71  60  67 NE8       29.94R
MANTEO         MOCLDY    70  61  72 NE14      29.95S
CAPE HATTERAS  PTCLDY    70  64  81 NE9G18    29.92S
TARBORO*       MOCLDY    63  61  93 CALM      29.98R
GOLDSBORO      MOCLDY    68  67  97 NE1       29.93S
WASHINGTON     CLEAR     65  62  89 NE3       29.95S
GREENVILLE     MOCLDY    64  63  94 CALM      29.98R
NEW BERN       PTCLDY    70  64  81 NE5       29.95R
WILMINGTON     CLEAR     71  68  90 NE9       29.91S
$$

VAZ048-180300-
ELSEWHERE

CITY           SKY/WX    TMP DP  RH WIND       PRES   REMARKS
HARRISBURG PA  PTCLDY    56  51  84 CALM      29.97S
BALTIMORE      CLEAR     57  53  86 CALM      29.98R
ANNAPOLIS      CLEAR     63  57  81 CALM      29.97S
ANDREWS AFB    CLEAR     59  51  76 CALM      29.98S
WILMINGTON DE  CLEAR     59  53  80 CALM      29.99S
PHILADELPHIA   PTCLDY    64  52  64 S7        29.99R
WILDWOOD NJ*   CLEAR     57  50  77 CALM      30.00S
ATLANTIC CITY  CLEAR     54  52  93 CALM      29.99S
HENDERSON NC   CLEAR     65  62  91 CALM      29.97F
GREENSBORO     MOCLDY    66  62  87 NE3       29.98R
ROCKY MOUNT    CLOUDY    66  62  87 NE3       29.96R
FAYETTEVILLE   PTCLDY    72  67  84 NE7       29.93R
CHARLOTTE      PTCLDY    66  63  90 N5        29.97R
$$

VAZ100-180300-
MARINE

STATION/POSITION TIME  TEMP    WIND        PRES    WAVE   SWELL
                       AIR SEA DIR/SP/G            HT/PER HT/PER
                 (UTC) (F)     (DEG/KT/KT) (MB)    (FT/S) (FT/S)
44066 TX TWR #4  0200   66 74  360/  6/  8 1015.6F   4/14   5/14
CAPE MAY NJ      0200   62 76  100/  3/  3 1015.0S
LEWES DE         0200   65 72  170/  3/  4 1015.1S
15NM E FENWICK I 0200   69 72              1015.1F   5/12
OCEAN-CITY-INLET 0200   68 72  100/  5/  7 1014.8F
WACHAPREAGUE VA  0200   68 76   80/  5/  7 1015.0S
THOMAS POINT MD  0200   70 75  130/  5/  6 1016.0S
GOOSES REEF MD   0200   72     110/  6/  8 1015.3S
COVE POINT MD    0200   70      90/  7/ 10 1014.9R
SOLOMONS ISLAND  0200      77                N/A
BISHOPS HEAD MD  0200   69 74  110/ 11/ 13 1014.6S
PINEY POINT MD   0200           80/  3/  4   N/A
POTOMAC MD       0200   72     130/  4/  6 1014.3S
CAMBRIDGE MD     0200   65 75  130/  3/  6 1014.8F
LEWISETTA VA     0200   66 75  230/  2/  3 1014.6S
RAPPAHANNOCK LGT 0200           80/ 10/ 11 1015.5R
STINGRAY PT      0200   71     110/  8/ 10   N/A
YORK RVR RNG VA  0200   71     110/  9/ 11 1014.4S
YORKTOWN VA      0200   71 77  110/  9/ 11 1014.5F
JAMESTOWN VA     0200   67     100/  4/  6   N/A
DOMINION TERM VA 0200   71      70/  3/  7 1014.8S
KIPTOPEKE VA     0200      78   90/  4/  5   N/A
CHES BAY BRIDGE  0200   71 76   60/ 11/ 15 1014.3S
CAPE HENRY VA    0200   71      80/ 13/ 16 1013.6S
CHESAPEAKE LGHT  0100   70      70/ 15/ 16 1015.2R
WILLOUBY STN VA  0200   71      70/  9/ 12 1013.5R
S CRANEY ISL VA  0200           70/  5/  7 1014.4F
CAPE HENRY BUOY  0200      76                N/A     4/12   3/12
1ST LANDING BUOY 0200   72      80/ 12/ 16 1014.5S
CAPE CHARLES BUO 0200      75                N/A     4/11   3/11
OFFSHORE WE BUOY 0200      74                N/A     4/13   5/13
64NM E OF VA BCH 0200   72 77   40/ 14/ 17 1013.8F   5/13   5/13
DUCK PIER NC     0200   72 76   50/ 16/ 17 1013.5R
44100 DUCK FRF   0200      74                N/A     5/12   3/12
44056 DUCK FRF   0200                        N/A     5/13   3/13
OREGON INLET NC  0200   72 76   40/ 13/ 16 1013.7S
HATTERAS NC      0200   74 79   40/ 12/ 16 1013.6S
DIAMOND SHLS NC  0200   75      30/ 16/ 19 1012.4R   7/ 7   3/12
CAPE LOOKOUT NC  0100   75      50/ 20/ 22 1012.5R
$$


USA.gov is the U.S. government's official web portal to all federal, state and local government web resources and services.